RH
67 74 79 80 72 81 66 60 41 53 45 35 42 56 77 76 65 68 93 89 90 92 87 84 84 83 82 82 80 80 81 79 72 68 71 74 77 77 76 72 70 70 69 65 66 71 71 70 69
76 68 84 92 84 76 59 47 38 68 54 44 38 69 75 80 91 94 92 89 88 89 86 84 86 84 83 81 81 83 81 75 70 68 68 71 72 75 73 72 70 70 71 70 68 70 70 69 69
71 71 89 94 93 65 57 36 32 38 43 53 47 69 79 92 83 87 90 85 88 92 88 86 87 86 85 81 82 83 81 76 71 71 72 72 68 69 66 74 73 74 75 75 73 72 71 70 69
84 92 88 90 90 66 41 29 29 60 70 61 50 59 90 93 89 93 82 86 95 98 95 89 87 87 88 86 85 83 79 78 73 70 71 72 72 68 68 74 75 77 77 76 75 73 72 72 70
94 91 88 91 83 59 44 35 45 54 72 63 48 54 90 83 89 84 88 90 95 98 95 89 88 86 86 85 85 86 84 81 76 70 70 72 72 72 71 74 77 77 77 76 75 73 72 72 69
90 87 95 98 72 53 39 38 50 45 62 68 63 55 84 92 92 92 90 95 89 94 93 88 89 89 88 86 86 87 88 84 79 74 71 71 72 74 76 77 77 76 76 73 73 74 74 72 67
91 89 86 83 69 56 38 37 43 44 56 63 52 50 92 94 94 92 93 95 91 97 95 96 94 93 91 90 88 87 89 87 85 82 78 77 77 76 75 77 77 76 76 75 73 70 70 68 63
91 84 89 84 70 56 38 50 47 48 50 38 41 64 89 92 87 95 96 94 96 98 94 98 98 98 97 96 91 90 90 90 89 88 87 87 86 83 79 84 81 76 76 76 75 73 68 64 61
80 96 93 83 67 51 45 50 50 53 60 73 43 69 70 82 88 95 96 92 94 94 88 88 90 99 97 95 95 95 94 95 94 94 92 92 95 93 93 92 86 84 80 77 75 72 70 74 72
89 93 76 64 54 49 52 46 54 63 79 85 94 79 80 86 84 92 97 96 96 98 94 87 86 98 97 81 98 98 97 98 96 97 96 97 96 97 92 94 88 85 83 80 74 72 74 74 74
77 91 66 59 68 72 54 47 54 68 76 73 67 74 82 91 78 83 88 97 96 95 94 91 90 98 96 92 99 100 99 99 98 97 97 96 94 97 98 98 96 95 89 90 87 88 87 78 74
82 75 65 56 80 78 60 50 63 59 55 53 80 75 82 88 90 75 79 92 94 96 96 93 96 96 96 92 93 98 98 99 99 98 96 98 99 98 98 99 98 97 97 93 93 96 90 88 80
82 78 74 75 83 83 74 63 62 63 60 84 86 81 82 83 80 82 75 82 84 90 88 94 97 94 91 90 93 90 90 94 95 98 96 96 97 98 98 98 98 97 96 97 96 96 94 94 92
70 74 76 82 88 89 79 72 65 58 64 91 88 88 82 88 89 80 85 89 84 71 72 86 92 96 93 86 93 92 85 80 85 86 90 87 92 97 98 98 97 96 96 96 96 96 96 92 88
80 88 90 87 86 87 94 79 78 64 68 78 91 92 89 89 91 84 81 87 84 79 77 85 90 97 97 92 96 93 90 85 87 84 78 73 80 87 87 86 87 93 91 89 94 86 87 91 88
85 92 96 87 83 86 89 90 75 68 62 62 59 66 90 90 91 89 85 82 84 80 80 86 81 92 95 96 96 95 85 82 78 84 81 72 68 73 79 83 82 76 76 79 83 86 89 89 89
88 100 95 92 80 91 90 86 75 64 59 62 62 57 54 62 67 86 89 90 86 76 78 85 82 80 82 91 94 94 94 85 82 78 82 77 71 71 78 84 85 85 81 79 77 81 75 84 76
94 98 89 94 92 89 88 83 68 64 61 60 61 63 58 54 53 65 72 91 90 88 84 80 87 89 87 92 94 94 93 94 88 81 86 73 74 77 81 86 85 86 89 88 80 77 82 82 80
77 95 95 87 87 86 87 88 75 74 61 62 59 58 55 51 47 47 46 77 94 93 96 91 94 93 94 98 95 94 95 89 88 91 77 76 74 73 80 88 88 89 90 86 79 80 82 84 88
78 93 97 88 87 78 86 88 80 83 73 58 56 55 56 53 50 45 46 43 90 93 96 92 90 90 82 87 85 89 95 95 80 80 74 76 76 73 76 81 88 83 85 82 87 87 88 89 90
71 91 96 93 88 84 88 89 87 84 72 61 58 55 55 53 49 47 47 45 44 89 96 92 86 85 84 84 94 97 96 96 92 89 85 85 83 82 84 86 90 93 95 94 94 95 95 96 96
74 60 66 82 79 94 84 95 75 72 69 66 68 68 61 56 53 50 48 50 45 49 89 94 94 94 94 96 97 95 97 96 95 95 96 90 85 88 88 86 88 87 82 79 83 95 96 98 99
79 70 63 69 89 90 92 95 70 69 71 65 62 62 63 59 55 51 49 50 47 43 56 92 95 96 95 96 94 96 97 97 99 98 93 92 92 92 92 93 91 85 84 83 82 84 83 96 98
69 83 90 86 97 99 88 87 64 67 73 62 57 62 61 59 58 52 48 53 52 60 67 85 93 96 96 98 97 97 95 98 98 98 98 98 97 96 92 86 78 75 80 85 90 93 95 96 97
70 75 99 98 99 97 82 86 67 50 47 60 64 56 47 47 52 53 53 59 61 66 64 79 94 94 94 96 98 99 98 96 93 95 96 96 95 91 85 82 82 82 85 89 92 93 95 96 97
78 72 89 90 95 90 73 88 53 44 46 44 46 49 49 49 51 56 69 66 71 69 73 77 81 85 83 92 94 93 98 98 97 95 94 91 87 84 85 84 81 81 82 88 92 96 97 98 99
86 84 61 75 79 81 69 61 47 48 52 52 53 54 56 55 55 52 54 73 74 74 75 74 73 73 74 74 79 90 94 94 93 93 89 85 84 85 83 82 84 86 87 91 92 96 96 96 97
60 54 72 85 80 74 70 71 63 58 58 54 58 58 59 60 60 62 64 65 78 82 83 80 78 74 74 76 80 79 81 80 81 83 86 83 81 80 82 82 87 89 89 89 90 94 95 97 97
68 73 72 73 79 82 74 58 50 48 58 60 60 58 62 63 66 69 71 72 78 84 87 86 81 76 76 78 78 79 78 75 71 71 73 76 75 77 78 81 85 86 84 88 90 91 92 95 94
86 80 68 80 77 84 76 61 51 56 54 57 64 62 63 63 64 66 69 71 73 80 86 87 87 86 81 80 77 75 75 76 71 70 75 74 75 75 80 83 84 86 87 88 89 90 90 95 94
Wind_Speed
5 2 1 2 2 3 12 8 5 5 4 3 3 1 3 3 1 4 3 5 16 14 12 14 18 17 17 16 16 14 16 16 15 14 14 15 17 18 19 17 17 17 16 16 16 16 15 14 12
2 1 3 1 4 8 15 8 9 10 8 4 7 1 4 2 2 7 7 10 15 13 11 11 17 18 18 17 16 17 17 17 16 15 14 15 15 16 19 17 16 16 15 15 15 14 14 13 11
9 1 3 4 4 11 13 13 9 8 10 7 8 2 1 3 2 7 9 12 13 11 10 11 18 18 18 17 17 18 17 17 16 15 14 14 15 15 16 16 15 14 13 13 13 13 11 11 11
6 0 1 4 7 10 6 14 10 7 10 7 6 7 2 2 4 3 13 13 9 7 9 15 17 17 17 15 15 17 17 17 16 15 15 15 15 15 16 14 14 13 13 12 12 12 10 9 10
4 1 6 7 11 3 6 6 14 12 13 7 19 6 1 5 3 13 13 11 10 7 9 12 17 17 15 15 14 15 16 17 16 16 15 15 15 15 15 14 13 12 12 12 11 10 9 8 8
5 4 6 12 21 7 9 5 11 15 17 9 11 13 1 4 7 5 12 11 9 8 10 11 15 15 14 14 12 11 16 18 17 15 15 15 15 14 14 12 11 10 10 10 10 9 8 8 7
6 6 10 14 18 4 9 7 9 13 16 16 15 8 3 3 4 2 12 10 10 6 9 7 9 10 12 11 12 10 10 17 16 15 14 13 14 15 15 13 12 10 8 7 7 6 6 5 6
4 6 9 8 9 9 11 1 4 11 23 16 21 8 5 5 6 3 5 11 10 7 8 7 8 6 5 5 9 9 9 12 14 14 12 10 10 11 12 10 9 10 9 7 6 5 4 3 3
4 7 10 9 16 9 4 5 2 3 7 1 26 7 10 19 13 11 5 8 8 8 10 9 9 5 5 5 5 8 9 9 12 9 11 9 4 5 6 6 8 8 8 7 6 4 3 2 1
10 9 15 7 4 6 5 5 8 6 4 5 3 6 20 15 20 8 6 10 9 8 8 8 10 7 6 4 5 4 4 4 5 5 4 3 5 4 5 5 7 7 6 6 6 4 3 1 1
14 11 12 13 3 3 5 7 1 10 4 5 19 22 20 18 23 20 12 4 5 4 6 7 10 7 6 5 3 2 2 3 4 6 5 4 2 3 2 3 2 2 3 1 1 1 0 2 1
10 16 11 12 3 3 3 5 4 2 7 9 7 13 22 19 15 16 22 19 13 7 5 6 7 9 6 4 4 4 4 3 3 4 6 4 3 3 3 2 3 3 2 2 2 1 2 3 3
14 9 14 4 5 4 4 3 6 3 0 12 12 17 13 12 10 5 15 18 15 19 5 4 5 7 9 8 4 3 4 5 5 4 5 4 4 4 4 3 3 3 2 3 3 3 3 3 4
11 11 13 6 6 1 4 2 1 4 0 9 10 11 15 12 10 7 8 8 12 12 11 8 7 6 6 8 8 6 4 5 4 4 5 6 5 5 4 4 4 4 4 3 3 3 3 4 2
7 8 14 8 6 4 5 3 4 2 5 6 8 5 8 11 10 13 10 9 8 8 10 16 16 6 7 5 5 5 7 5 5 5 7 7 6 6 6 4 4 4 4 5 3 3 2 2 2
8 7 10 3 7 2 3 4 3 2 8 7 8 5 6 8 9 10 12 13 11 11 14 16 14 16 8 7 5 4 6 5 6 4 5 8 8 7 5 5 5 4 4 4 3 3 3 4 3
6 1 6 6 8 5 4 5 1 0 5 6 4 3 4 3 6 6 8 11 12 16 16 15 14 13 15 11 6 5 7 7 5 5 4 7 7 7 5 5 4 5 4 4 4 4 3 3 3
8 7 8 10 6 3 5 5 2 6 3 6 5 4 2 1 3 2 6 5 10 10 11 14 9 9 13 10 7 7 8 5 4 3 4 7 6 6 5 4 4 4 3 3 3 4 3 3 3
10 9 5 6 7 1 7 5 6 6 7 6 5 4 4 6 4 4 4 6 5 6 10 13 11 10 7 3 8 8 8 4 2 4 6 7 7 8 7 4 4 4 4 5 4 3 3 3 1
10 10 6 7 9 6 1 5 4 9 10 7 6 7 7 4 4 6 6 5 6 7 8 9 11 12 12 9 5 4 4 4 2 3 5 5 6 6 6 6 5 4 3 3 4 4 1 1 1
11 13 11 6 6 6 3 2 5 9 12 8 6 5 5 7 7 6 7 7 6 7 7 8 11 12 9 6 4 3 2 2 3 2 2 1 3 4 5 5 4 3 1 1 1 1 2 2 1
7 12 15 16 9 2 3 4 3 13 14 6 6 5 6 6 5 6 6 6 7 9 7 6 3 5 3 5 3 4 3 4 3 4 3 4 4 4 4 4 2 2 0 2 1 1 1 2 3
3 7 9 10 5 6 4 2 5 4 6 10 7 9 7 7 6 6 8 7 7 8 7 5 4 5 5 6 8 6 4 2 2 3 4 5 6 5 4 2 3 4 3 2 1 2 3 2 2
8 20 11 6 4 2 6 4 5 2 5 5 5 6 6 6 6 5 6 6 6 2 4 3 5 5 4 4 6 11 10 7 4 4 4 2 2 2 3 2 3 3 2 2 3 2 3 3 2
7 4 3 4 1 2 4 4 6 7 6 4 2 5 7 7 6 4 6 3 5 4 4 3 4 3 2 2 2 3 4 5 9 9 7 6 3 2 6 4 2 2 3 3 2 2 3 3 3
3 2 4 4 2 2 2 4 2 3 3 5 7 7 8 8 7 7 7 2 2 4 4 3 3 3 3 1 2 3 3 2 1 5 5 5 3 3 5 7 6 6 5 3 1 1 2 3 3
2 2 2 7 2 4 2 1 2 4 7 9 9 10 9 9 9 8 8 6 4 4 3 1 2 3 2 2 1 3 2 3 3 3 4 6 7 6 7 6 5 3 2 2 0 2 4 3 3
4 5 3 3 3 3 2 2 3 2 4 6 8 8 8 7 9 8 8 8 7 5 4 2 2 3 3 2 1 1 3 4 3 3 3 2 1 3 5 4 3 2 0 1 2 2 3 4 3
4 2 4 4 3 4 4 3 1 5 3 7 5 6 7 7 7 7 8 8 7 7 7 5 3 2 3 2 1 2 2 4 6 5 3 4 5 2 4 4 3 2 1 1 2 3 4 5 5
1 1 4 5 3 2 3 2 8 9 6 7 7 6 6 7 7 7 7 7 8 7 6 5 5 5 4 4 4 4 3 2 2 4 6 5 5 4 4 3 2 1 2 1 3 3 4 5 5
Wind_Direction
304 352 9 37 166 121 214 253 282 79 40 20 351 353 133 33 210 208 143 137 133 141 150 150 148 145 138 132 133 132 127 117 121 120 120 116 116 116 112 112 109 107 110 107 105 103 100 94 83
257 17 56 210 154 183 215 214 239 140 226 322 1 327 24 26 68 110 108 146 137 138 146 147 145 141 138 137 135 134 130 126 125 127 127 123 122 118 116 113 112 113 113 110 107 105 101 93 82
274 130 148 180 189 204 217 202 220 150 166 17 317 48 96 27 83 129 119 142 135 140 141 148 145 143 142 141 138 135 134 129 129 130 131 129 129 126 121 114 116 114 115 115 112 109 104 95 88
254 146 305 212 221 244 207 199 195 113 41 345 265 347 321 275 309 130 134 134 126 129 129 144 145 144 140 142 146 143 140 133 131 132 133 131 132 133 121 124 122 118 117 115 114 112 107 94 86
234 164 212 218 244 234 245 175 152 149 128 179 258 278 189 328 314 137 129 125 139 129 130 138 144 142 140 144 151 150 145 137 136 137 137 137 136 134 132 132 129 127 125 125 124 121 114 100 88
233 214 189 195 231 204 245 186 135 156 143 152 273 258 146 281 21 119 129 128 142 137 131 143 141 141 141 144 151 153 150 143 142 141 141 139 138 138 136 136 135 135 133 131 130 130 125 111 98
224 206 210 194 239 233 212 171 164 170 154 162 220 235 123 130 320 305 136 136 140 141 133 137 133 135 138 144 149 155 152 148 148 145 144 143 142 144 145 146 147 146 140 135 127 123 119 117 109
197 205 205 215 203 235 211 87 143 147 173 171 180 235 181 150 43 320 138 144 140 128 121 118 114 116 118 137 149 156 157 156 151 148 142 142 146 149 147 145 151 154 153 153 149 148 140 118 83
199 219 216 206 196 234 235 139 275 144 123 62 173 183 132 156 118 236 147 140 144 141 146 147 144 126 131 137 153 149 154 150 144 143 144 141 142 138 137 154 155 158 161 164 164 172 168 162 55
203 199 205 195 210 229 253 172 152 119 132 150 159 92 134 137 150 184 163 161 162 154 156 161 157 148 142 145 149 143 144 137 138 135 142 135 150 154 155 165 169 171 174 176 177 187 201 118 327
197 215 184 223 236 268 250 159 110 127 167 231 171 158 158 151 171 151 157 170 176 168 171 167 164 154 152 146 158 157 146 138 139 148 154 153 153 167 158 158 171 178 190 214 219 335 256 239 269
207 229 183 200 25 317 240 138 117 209 192 142 133 165 151 172 180 175 175 165 186 157 187 174 172 164 167 150 174 176 163 158 158 169 169 159 163 182 184 192 191 180 194 206 215 226 266 275 272
207 204 184 159 66 314 284 218 157 152 20 112 121 158 162 186 181 175 173 168 170 142 194 252 225 196 181 169 173 177 186 181 183 177 191 177 182 189 178 197 203 206 198 207 219 220 243 263 266
196 234 202 178 83 317 27 300 79 248 218 106 135 179 165 188 164 160 159 170 174 140 174 159 257 234 211 189 178 190 187 194 178 176 194 197 188 178 186 194 206 202 202 221 227 232 242 259 271
135 215 203 196 110 9 355 330 187 158 133 128 132 185 178 174 161 170 170 181 152 178 179 173 192 218 208 234 210 200 201 183 196 196 188 194 199 187 181 193 205 216 200 214 226 246 244 252 242
142 3 171 1 111 332 10 204 249 184 140 138 136 161 164 161 166 157 171 178 177 178 189 186 200 170 187 223 202 221 229 193 202 196 189 193 197 191 185 191 199 200 189 189 191 197 207 224 224
132 152 143 98 156 11 292 155 247 150 145 143 157 126 102 110 143 178 183 158 179 190 190 202 194 192 187 205 212 217 232 210 207 196 191 192 198 199 189 188 200 181 184 192 195 207 207 224 256
169 214 94 101 127 257 222 285 317 352 282 193 193 207 117 204 253 202 197 202 195 194 184 187 192 184 193 183 190 236 237 213 199 188 190 203 196 195 193 202 202 182 183 212 205 218 213 231 269
124 97 75 91 133 70 172 296 288 339 330 281 261 227 219 213 247 237 248 200 234 214 174 174 176 195 184 169 205 210 214 199 194 195 207 190 201 192 190 202 204 186 192 219 193 183 231 256 211
130 130 65 99 136 90 259 299 322 300 300 261 231 246 237 255 255 262 246 193 199 228 219 187 193 196 189 183 172 178 169 201 173 196 197 194 202 198 191 193 201 190 190 199 196 184 209 242 168
183 148 154 121 140 68 240 264 186 260 250 238 239 224 215 234 247 245 248 234 212 209 217 220 210 207 206 188 138 113 97 88 131 146 145 146 206 196 180 184 183 161 167 195 168 162 192 245 355
137 165 157 149 129 225 114 313 234 217 248 242 257 231 217 217 249 259 251 235 237 230 198 212 222 250 259 151 213 209 201 178 189 152 123 101 70 76 84 70 95 104 1 131 133 106 173 156 232
96 82 119 154 134 131 135 277 271 25 282 266 253 243 241 243 236 259 262 249 235 238 209 180 197 222 218 181 180 187 196 224 154 82 141 147 141 134 105 146 159 158 144 104 358 213 199 188 204
109 81 57 54 41 99 160 168 296 216 233 264 231 217 241 266 279 268 268 264 244 201 158 169 191 210 200 222 216 191 198 164 153 133 188 187 118 123 131 188 209 126 122 192 212 217 196 193 220
99 116 74 48 33 100 176 135 259 315 314 248 63 65 46 37 17 298 263 282 279 235 188 188 214 224 183 226 303 275 257 187 181 163 194 161 153 245 141 174 216 117 175 204 210 224 233 221 212
101 101 132 129 165 140 213 205 267 297 349 60 74 82 65 50 32 32 356 335 328 5 21 21 358 345 305 283 286 290 264 231 236 176 176 134 212 158 165 163 184 181 188 168 229 285 268 246 226
245 338 114 106 9 76 259 322 47 17 32 46 52 54 39 30 20 17 16 26 27 36 79 139 282 278 306 343 305 248 224 182 159 213 185 153 193 189 183 157 173 176 156 115 169 256 253 244 249
154 164 65 5 131 104 336 335 217 131 90 67 49 58 45 35 25 13 19 17 14 30 9 16 351 309 313 297 193 124 115 106 111 129 170 149 1 66 95 115 112 109 120 176 209 241 265 256 254
27 74 57 102 58 138 131 262 309 194 98 96 59 58 46 34 21 8 11 6 11 7 9 352 339 302 299 266 260 168 143 124 119 103 56 119 105 101 129 131 153 163 235 280 291 283 285 272 265
274 302 124 118 221 54 119 313 328 120 127 93 72 63 59 50 32 23 20 16 20 6 356 342 330 310 272 244 210 211 189 170 181 147 151 141 137 148 154 135 132 241 303 312 273 294 299 282 269